TimeCDT,TemperatureF,Dew PointF,Humidity,Sea Level PressureIn,VisibilityMPH,Wind Direction,Wind SpeedMPH,Gust SpeedMPH,PrecipitationIn,Events,Conditions,WindDirDegrees,DateUTC
12:55 AM,44.6,37.4,76,30.13,10.0,North,12.7,-,N/A,,Clear,360,2012-10-28 05:55:00
1:55 AM,42.8,35.6,76,30.12,10.0,North,12.7,-,N/A,,Clear,360,2012-10-28 06:55:00
2:15 AM,42.8,35.6,76,30.12,10.0,North,12.7,-,N/A,,Clear,360,2012-10-28 07:15:00
2:35 AM,42.8,35.6,76,30.12,10.0,North,13.8,-,N/A,,Clear,360,2012-10-28 07:35:00
2:55 AM,41.0,35.6,81,30.12,10.0,North,11.5,-,N/A,,Clear,360,2012-10-28 07:55:00
3:15 AM,41.0,35.6,81,30.11,10.0,North,10.4,-,N/A,,Clear,360,2012-10-28 08:15:00
3:35 AM,41.0,35.6,81,30.12,10.0,North,9.2,-,N/A,,Clear,350,2012-10-28 08:35:00
3:55 AM,39.2,35.6,87,30.12,10.0,North,8.1,-,N/A,,Clear,350,2012-10-28 08:55:00
4:55 AM,39.2,35.6,87,30.14,10.0,NNW,6.9,-,N/A,,Clear,330,2012-10-28 09:55:00
5:55 AM,39.2,35.6,87,30.15,10.0,NW,8.1,-,N/A,,Clear,320,2012-10-28 10:55:00
6:55 AM,37.4,33.8,87,30.15,10.0,NNW,9.2,-,N/A,,Clear,340,2012-10-28 11:55:00
7:55 AM,37.4,33.8,87,30.17,10.0,NW,8.1,-,N/A,,Clear,320,2012-10-28 12:55:00
8:55 AM,42.8,35.6,76,30.17,10.0,North,9.2,-,N/A,,Clear,350,2012-10-28 13:55:00
9:55 AM,44.6,35.6,71,30.17,10.0,North,9.2,-,N/A,,Clear,360,2012-10-28 14:55:00
10:55 AM,48.2,35.6,62,30.17,10.0,North,8.1,-,N/A,,Clear,360,2012-10-28 15:55:00
11:55 AM,53.6,37.4,54,30.18,10.0,North,16.1,-,N/A,,Clear,350,2012-10-28 16:55:00
12:55 PM,55.4,37.4,51,30.17,10.0,North,16.1,-,N/A,,Clear,360,2012-10-28 17:55:00
1:55 PM,55.4,35.6,47,30.14,10.0,North,12.7,-,N/A,,Clear,350,2012-10-28 18:55:00
2:55 PM,55.4,35.6,47,30.13,10.0,North,13.8,-,N/A,,Clear,10,2012-10-28 19:55:00
3:55 PM,57.2,35.6,44,30.13,10.0,NNW,15.0,-,N/A,,Clear,330,2012-10-28 20:55:00
4:55 PM,55.4,33.8,44,30.14,10.0,NNW,12.7,-,N/A,,Clear,340,2012-10-28 21:55:00
5:55 PM,51.8,35.6,54,30.15,10.0,North,10.4,-,N/A,,Clear,360,2012-10-28 22:55:00
6:55 PM,48.2,35.6,62,30.16,10.0,North,8.1,-,N/A,,Clear,350,2012-10-28 23:55:00
8:55 PM,46.4,35.6,66,30.17,10.0,North,9.2,-,N/A,,Clear,10,2012-10-29 01:55:00
9:55 PM,44.6,35.6,71,30.19,10.0,North,8.1,-,N/A,,Clear,360,2012-10-29 02:55:00
10:55 PM,42.8,35.6,76,30.20,10.0,North,8.1,-,N/A,,Clear,360,2012-10-29 03:55:00
11:55 PM,44.6,33.8,66,30.20,10.0,North,10.4,-,N/A,,Clear,360,2012-10-29 04:55:00